owner,sensor,date,latitude,longitude,air_temperature,qcFlag 
DISL,ioos:station:DISL:MBLA:1,2016-06-01T00:00:00Z,30.4367,-88.0117,27.83,1111122 
DISL,ioos:station:DISL:MBLA:1,2016-06-01T00:30:00Z,30.4367,-88.0117,27.76,1111122 
DISL,ioos:station:DISL:MBLA:1,2016-06-01T01:00:00Z,30.4367,-88.0117,28.27,1111122 
DISL,ioos:station:DISL:MBLA:1,2016-06-01T01:30:00Z,30.4367,-88.0117,28.0,1111122 
DISL,ioos:station:DISL:MBLA:1,2016-06-01T02:00:00Z,30.4367,-88.0117,27.97,1111122 
DISL,ioos:station:DISL:MBLA:1,2016-06-01T02:30:00Z,30.4367,-88.0117,27.97,1111122 
DISL,ioos:station:DISL:MBLA:1,2016-06-01T03:00:00Z,30.4367,-88.0117,27.8,1111122 
DISL,ioos:station:DISL:MBLA:1,2016-06-01T03:30:00Z,30.4367,-88.0117,27.7,1111122 
DISL,ioos:station:DISL:MBLA:1,2016-06-01T04:00:00Z,30.4367,-88.0117,27.7,1111122 
DISL,ioos:station:DISL:MBLA:1,2016-06-01T04:30:00Z,30.4367,-88.0117,27.74,1111122 
DISL,ioos:station:DISL:MBLA:1,2016-06-01T05:00:00Z,30.4367,-88.0117,27.67,1111122 
DISL,ioos:station:DISL:MBLA:1,2016-06-01T05:30:00Z,30.4367,-88.0117,27.54,1111122 
DISL,ioos:station:DISL:MBLA:1,2016-06-01T06:00:00Z,30.4367,-88.0117,27.37,1111122 
DISL,ioos:station:DISL:MBLA:1,2016-06-01T06:30:00Z,30.4367,-88.0117,27.2,1111122 
DISL,ioos:station:DISL:MBLA:1,2016-06-01T07:00:00Z,30.4367,-88.0117,27.1,1111122 
DISL,ioos:station:DISL:MBLA:1,2016-06-01T07:30:00Z,30.4367,-88.0117,26.9,1111122 
DISL,ioos:station:DISL:MBLA:1,2016-06-01T08:00:00Z,30.4367,-88.0117,26.63,1111122 
DISL,ioos:station:DISL:MBLA:1,2016-06-01T08:30:00Z,30.4367,-88.0117,26.87,1111122 
DISL,ioos:station:DISL:MBLA:1,2016-06-01T09:00:00Z,30.4367,-88.0117,26.77,1111122 
DISL,ioos:station:DISL:MBLA:1,2016-06-01T09:30:00Z,30.4367,-88.0117,26.77,1111122 
DISL,ioos:station:DISL:MBLA:1,2016-06-01T10:00:00Z,30.4367,-88.0117,26.73,1111122 
DISL,ioos:station:DISL:MBLA:1,2016-06-01T10:30:00Z,30.4367,-88.0117,26.8,1111122 
DISL,ioos:station:DISL:MBLA:1,2016-06-01T11:00:00Z,30.4367,-88.0117,26.33,1111122 
DISL,ioos:station:DISL:MBLA:1,2016-06-01T11:30:00Z,30.4367,-88.0117,26.9,1111122 
DISL,ioos:station:DISL:MBLA:1,2016-06-01T12:00:00Z,30.4367,-88.0117,27.21,1111122 
DISL,ioos:station:DISL:MBLA:1,2016-06-01T12:30:00Z,30.4367,-88.0117,27.34,1111122 
DISL,ioos:station:DISL:MBLA:1,2016-06-01T13:00:00Z,30.4367,-88.0117,27.9,1111122 
DISL,ioos:station:DISL:MBLA:1,2016-06-01T13:30:00Z,30.4367,-88.0117,27.36,1111122 
DISL,ioos:station:DISL:MBLA:1,2016-06-01T14:00:00Z,30.4367,-88.0117,27.08,1111122 
DISL,ioos:station:DISL:MBLA:1,2016-06-01T14:30:00Z,30.4367,-88.0117,28.91,1111122 
DISL,ioos:station:DISL:MBLA:1,2016-06-01T15:00:00Z,30.4367,-88.0117,29.59,1111122 
DISL,ioos:station:DISL:MBLA:1,2016-06-01T15:30:00Z,30.4367,-88.0117,28.27,1111122 
DISL,ioos:station:DISL:MBLA:1,2016-06-01T16:00:00Z,30.4367,-88.0117,27.93,1111122 
DISL,ioos:station:DISL:MBLA:1,2016-06-01T16:30:00Z,30.4367,-88.0117,27.49,1111122 
DISL,ioos:station:DISL:MBLA:1,2016-06-01T17:00:00Z,30.4367,-88.0117,27.9,1111122 
DISL,ioos:station:DISL:MBLA:1,2016-06-01T17:30:00Z,30.4367,-88.0117,27.83,1111122 
DISL,ioos:station:DISL:MBLA:1,2016-06-01T18:00:00Z,30.4367,-88.0117,27.8,1111122 
DISL,ioos:station:DISL:MBLA:1,2016-06-01T18:30:00Z,30.4367,-88.0117,27.97,1111122 
DISL,ioos:station:DISL:MBLA:1,2016-06-01T19:00:00Z,30.4367,-88.0117,27.66,1111122 
DISL,ioos:station:DISL:MBLA:1,2016-06-01T19:30:00Z,30.4367,-88.0117,27.76,1111122 
DISL,ioos:station:DISL:MBLA:1,2016-06-01T20:00:00Z,30.4367,-88.0117,27.76,1111122 
DISL,ioos:station:DISL:MBLA:1,2016-06-01T20:30:00Z,30.4367,-88.0117,28.0,1111122 
DISL,ioos:station:DISL:MBLA:1,2016-06-01T21:00:00Z,30.4367,-88.0117,27.93,1111122 
DISL,ioos:station:DISL:MBLA:1,2016-06-01T21:30:00Z,30.4367,-88.0117,27.83,1111122 
DISL,ioos:station:DISL:MBLA:1,2016-06-01T22:00:00Z,30.4367,-88.0117,27.73,1111122 
DISL,ioos:station:DISL:MBLA:1,2016-06-01T22:30:00Z,30.4367,-88.0117,27.86,1111122 
DISL,ioos:station:DISL:MBLA:1,2016-06-01T23:00:00Z,30.4367,-88.0117,27.9,1111122 
DISL,ioos:station:DISL:MBLA:1,2016-06-01T23:30:00Z,30.4367,-88.0117,27.59,1111122 
DISL,ioos:station:DISL:MBLA:1,2016-06-02T00:00:00Z,30.4367,-88.0117,27.49,1111122 
DISL,ioos:station:DISL:MBLA:1,2016-06-02T00:30:00Z,30.4367,-88.0117,27.73,1111122 
DISL,ioos:station:DISL:MBLA:1,2016-06-02T01:00:00Z,30.4367,-88.0117,27.46,1111122 
DISL,ioos:station:DISL:MBLA:1,2016-06-02T01:30:00Z,30.4367,-88.0117,27.5,1111122 
DISL,ioos:station:DISL:MBLA:1,2016-06-02T02:00:00Z,30.4367,-88.0117,27.56,1111122 
DISL,ioos:station:DISL:MBLA:1,2016-06-02T02:30:00Z,30.4367,-88.0117,27.5,1111122 
DISL,ioos:station:DISL:MBLA:1,2016-06-02T03:00:00Z,30.4367,-88.0117,27.54,1111122 
DISL,ioos:station:DISL:MBLA:1,2016-06-02T03:30:00Z,30.4367,-88.0117,27.4,1111122 
DISL,ioos:station:DISL:MBLA:1,2016-06-02T04:00:00Z,30.4367,-88.0117,27.47,1111122 
DISL,ioos:station:DISL:MBLA:1,2016-06-02T04:30:00Z,30.4367,-88.0117,27.34,1111122 
DISL,ioos:station:DISL:MBLA:1,2016-06-02T05:00:00Z,30.4367,-88.0117,27.24,1111122 
DISL,ioos:station:DISL:MBLA:1,2016-06-02T05:30:00Z,30.4367,-88.0117,27.24,1111122 
DISL,ioos:station:DISL:MBLA:1,2016-06-02T06:00:00Z,30.4367,-88.0117,27.17,1111122 
DISL,ioos:station:DISL:MBLA:1,2016-06-02T06:30:00Z,30.4367,-88.0117,27.07,1111122 
DISL,ioos:station:DISL:MBLA:1,2016-06-02T07:00:00Z,30.4367,-88.0117,27.1,1111122 
DISL,ioos:station:DISL:MBLA:1,2016-06-02T07:30:00Z,30.4367,-88.0117,26.97,1111122 
DISL,ioos:station:DISL:MBLA:1,2016-06-02T08:00:00Z,30.4367,-88.0117,27.04,1111122 
DISL,ioos:station:DISL:MBLA:1,2016-06-02T08:30:00Z,30.4367,-88.0117,27.01,1111122 
DISL,ioos:station:DISL:MBLA:1,2016-06-02T09:00:00Z,30.4367,-88.0117,27.04,1111122 
DISL,ioos:station:DISL:MBLA:1,2016-06-02T09:30:00Z,30.4367,-88.0117,27.01,1111122 
DISL,ioos:station:DISL:MBLA:1,2016-06-02T10:00:00Z,30.4367,-88.0117,26.97,1111122 
DISL,ioos:station:DISL:MBLA:1,2016-06-02T10:30:00Z,30.4367,-88.0117,27.01,1111122 
DISL,ioos:station:DISL:MBLA:1,2016-06-02T11:00:00Z,30.4367,-88.0117,27.01,1111122 
DISL,ioos:station:DISL:MBLA:1,2016-06-02T11:30:00Z,30.4367,-88.0117,27.11,1111122 
DISL,ioos:station:DISL:MBLA:1,2016-06-02T12:00:00Z,30.4367,-88.0117,27.78,1111122 
DISL,ioos:station:DISL:MBLA:1,2016-06-02T12:30:00Z,30.4367,-88.0117,28.01,1111122 
DISL,ioos:station:DISL:MBLA:1,2016-06-02T13:00:00Z,30.4367,-88.0117,27.49,1111122 
DISL,ioos:station:DISL:MBLA:1,2016-06-02T13:30:00Z,30.4367,-88.0117,27.46,1111122 
DISL,ioos:station:DISL:MBLA:1,2016-06-02T14:00:00Z,30.4367,-88.0117,27.15,1111122 
DISL,ioos:station:DISL:MBLA:1,2016-06-02T14:30:00Z,30.4367,-88.0117,27.46,1111122 
DISL,ioos:station:DISL:MBLA:1,2016-06-02T15:00:00Z,30.4367,-88.0117,27.36,1111122 
DISL,ioos:station:DISL:MBLA:1,2016-06-02T15:30:00Z,30.4367,-88.0117,27.46,1111122 
DISL,ioos:station:DISL:MBLA:1,2016-06-02T16:00:00Z,30.4367,-88.0117,27.66,1111122 
DISL,ioos:station:DISL:MBLA:1,2016-06-02T16:30:00Z,30.4367,-88.0117,27.49,1111122 
DISL,ioos:station:DISL:MBLA:1,2016-06-02T17:00:00Z,30.4367,-88.0117,27.66,1111122 
DISL,ioos:station:DISL:MBLA:1,2016-06-02T17:30:00Z,30.4367,-88.0117,27.76,1111122 
DISL,ioos:station:DISL:MBLA:1,2016-06-02T18:00:00Z,30.4367,-88.0117,27.76,1111122 
DISL,ioos:station:DISL:MBLA:1,2016-06-02T18:30:00Z,30.4367,-88.0117,27.76,1111122 
DISL,ioos:station:DISL:MBLA:1,2016-06-02T19:00:00Z,30.4367,-88.0117,27.73,1111122 
DISL,ioos:station:DISL:MBLA:1,2016-06-02T19:30:00Z,30.4367,-88.0117,27.76,1111122 
DISL,ioos:station:DISL:MBLA:1,2016-06-02T20:00:00Z,30.4367,-88.0117,27.69,1111122 
DISL,ioos:station:DISL:MBLA:1,2016-06-02T20:30:00Z,30.4367,-88.0117,27.76,1111122 
DISL,ioos:station:DISL:MBLA:1,2016-06-02T21:00:00Z,30.4367,-88.0117,27.97,1111122 
DISL,ioos:station:DISL:MBLA:1,2016-06-02T21:30:00Z,30.4367,-88.0117,27.97,1111122 
DISL,ioos:station:DISL:MBLA:1,2016-06-02T22:00:00Z,30.4367,-88.0117,28.17,1111122 
DISL,ioos:station:DISL:MBLA:1,2016-06-02T22:30:00Z,30.4367,-88.0117,28.03,1111122 
DISL,ioos:station:DISL:MBLA:1,2016-06-02T23:00:00Z,30.4367,-88.0117,27.93,1111122 
DISL,ioos:station:DISL:MBLA:1,2016-06-02T23:30:00Z,30.4367,-88.0117,27.9,1111122 
DISL,ioos:station:DISL:MBLA:1,2016-06-03T00:00:00Z,30.4367,-88.0117,27.83,1111122 
DISL,ioos:station:DISL:MBLA:1,2016-06-03T00:30:00Z,30.4367,-88.0117,27.76,1111122 
DISL,ioos:station:DISL:MBLA:1,2016-06-03T01:00:00Z,30.4367,-88.0117,27.63,1111122 
DISL,ioos:station:DISL:MBLA:1,2016-06-03T01:30:00Z,30.4367,-88.0117,27.66,1111122 
DISL,ioos:station:DISL:MBLA:1,2016-06-03T02:00:00Z,30.4367,-88.0117,27.74,1111122 
DISL,ioos:station:DISL:MBLA:1,2016-06-03T02:30:00Z,30.4367,-88.0117,27.66,1111122 
DISL,ioos:station:DISL:MBLA:1,2016-06-03T03:00:00Z,30.4367,-88.0117,27.74,1111122 
DISL,ioos:station:DISL:MBLA:1,2016-06-03T03:30:00Z,30.4367,-88.0117,27.7,1111122 
DISL,ioos:station:DISL:MBLA:1,2016-06-03T04:00:00Z,30.4367,-88.0117,27.67,1111122 
DISL,ioos:station:DISL:MBLA:1,2016-06-03T04:30:00Z,30.4367,-88.0117,27.54,1111122 
DISL,ioos:station:DISL:MBLA:1,2016-06-03T05:00:00Z,30.4367,-88.0117,27.57,1111122 
DISL,ioos:station:DISL:MBLA:1,2016-06-03T05:30:00Z,30.4367,-88.0117,27.5,1111122 
DISL,ioos:station:DISL:MBLA:1,2016-06-03T06:00:00Z,30.4367,-88.0117,27.4,1111122 
DISL,ioos:station:DISL:MBLA:1,2016-06-03T06:30:00Z,30.4367,-88.0117,27.44,1111122 
DISL,ioos:station:DISL:MBLA:1,2016-06-03T07:00:00Z,30.4367,-88.0117,27.3,1111122 
DISL,ioos:station:DISL:MBLA:1,2016-06-03T07:30:00Z,30.4367,-88.0117,27.33,1111122 
DISL,ioos:station:DISL:MBLA:1,2016-06-03T08:00:00Z,30.4367,-88.0117,27.37,1111122 
DISL,ioos:station:DISL:MBLA:1,2016-06-03T08:30:00Z,30.4367,-88.0117,27.24,1111122 
DISL,ioos:station:DISL:MBLA:1,2016-06-03T09:00:00Z,30.4367,-88.0117,27.31,1111122 
DISL,ioos:station:DISL:MBLA:1,2016-06-03T09:30:00Z,30.4367,-88.0117,27.2,1111122 
DISL,ioos:station:DISL:MBLA:1,2016-06-03T10:00:00Z,30.4367,-88.0117,27.24,1111122 
DISL,ioos:station:DISL:MBLA:1,2016-06-03T10:30:00Z,30.4367,-88.0117,27.17,1111122 
DISL,ioos:station:DISL:MBLA:1,2016-06-03T11:00:00Z,30.4367,-88.0117,27.07,1111122 
DISL,ioos:station:DISL:MBLA:1,2016-06-03T11:30:00Z,30.4367,-88.0117,27.41,1111122 
DISL,ioos:station:DISL:MBLA:1,2016-06-03T12:00:00Z,30.4367,-88.0117,27.47,1111122 
DISL,ioos:station:DISL:MBLA:1,2016-06-03T12:30:00Z,30.4367,-88.0117,27.16,1111122 
DISL,ioos:station:DISL:MBLA:1,2016-06-03T13:00:00Z,30.4367,-88.0117,27.5,1111122 
DISL,ioos:station:DISL:MBLA:1,2016-06-03T13:30:00Z,30.4367,-88.0117,27.7,1111122 
DISL,ioos:station:DISL:MBLA:1,2016-06-03T14:00:00Z,30.4367,-88.0117,27.76,1111122 
DISL,ioos:station:DISL:MBLA:1,2016-06-03T14:30:00Z,30.4367,-88.0117,27.97,1111122 
DISL,ioos:station:DISL:MBLA:1,2016-06-03T15:00:00Z,30.4367,-88.0117,27.8,1111122 
DISL,ioos:station:DISL:MBLA:1,2016-06-03T15:30:00Z,30.4367,-88.0117,27.73,1111122 
DISL,ioos:station:DISL:MBLA:1,2016-06-03T16:00:00Z,30.4367,-88.0117,27.73,1111122 
DISL,ioos:station:DISL:MBLA:1,2016-06-03T16:30:00Z,30.4367,-88.0117,27.86,1111122 
DISL,ioos:station:DISL:MBLA:1,2016-06-03T17:00:00Z,30.4367,-88.0117,27.86,1111122 
DISL,ioos:station:DISL:MBLA:1,2016-06-03T17:30:00Z,30.4367,-88.0117,28.03,1111122 
DISL,ioos:station:DISL:MBLA:1,2016-06-03T18:00:00Z,30.4367,-88.0117,28.07,1111122 
DISL,ioos:station:DISL:MBLA:1,2016-06-03T18:30:00Z,30.4367,-88.0117,28.13,1111122 
DISL,ioos:station:DISL:MBLA:1,2016-06-03T19:00:00Z,30.4367,-88.0117,28.17,1111122 
DISL,ioos:station:DISL:MBLA:1,2016-06-03T19:30:00Z,30.4367,-88.0117,28.24,1111122 
DISL,ioos:station:DISL:MBLA:1,2016-06-03T20:00:00Z,30.4367,-88.0117,28.17,1111122 
DISL,ioos:station:DISL:MBLA:1,2016-06-03T20:30:00Z,30.4367,-88.0117,28.17,1111122 
DISL,ioos:station:DISL:MBLA:1,2016-06-03T21:00:00Z,30.4367,-88.0117,28.27,1111122 
DISL,ioos:station:DISL:MBLA:1,2016-06-03T21:30:00Z,30.4367,-88.0117,28.27,1111122 
DISL,ioos:station:DISL:MBLA:1,2016-06-03T22:00:00Z,30.4367,-88.0117,28.34,1111122 
DISL,ioos:station:DISL:MBLA:1,2016-06-03T22:30:00Z,30.4367,-88.0117,28.27,1111122 
DISL,ioos:station:DISL:MBLA:1,2016-06-03T23:00:00Z,30.4367,-88.0117,28.3,1111122 
DISL,ioos:station:DISL:MBLA:1,2016-06-03T23:30:00Z,30.4367,-88.0117,28.2,1111122 
DISL,ioos:station:DISL:MBLA:1,2016-06-04T00:00:00Z,30.4367,-88.0117,28.13,1111122 
DISL,ioos:station:DISL:MBLA:1,2016-06-04T00:30:00Z,30.4367,-88.0117,28.03,1111122 
DISL,ioos:station:DISL:MBLA:1,2016-06-04T01:00:00Z,30.4367,-88.0117,28.17,1111122 
DISL,ioos:station:DISL:MBLA:1,2016-06-04T01:30:00Z,30.4367,-88.0117,28.1,1111122 
DISL,ioos:station:DISL:MBLA:1,2016-06-04T02:00:00Z,30.4367,-88.0117,28.03,1111122 
DISL,ioos:station:DISL:MBLA:1,2016-06-04T02:30:00Z,30.4367,-88.0117,28.2,1111122 
DISL,ioos:station:DISL:MBLA:1,2016-06-04T03:00:00Z,30.4367,-88.0117,28.07,1111122 
DISL,ioos:station:DISL:MBLA:1,2016-06-04T03:30:00Z,30.4367,-88.0117,28.07,1111122 
DISL,ioos:station:DISL:MBLA:1,2016-06-04T04:00:00Z,30.4367,-88.0117,27.19,1111122 
DISL,ioos:station:DISL:MBLA:1,2016-06-04T04:30:00Z,30.4367,-88.0117,27.98,1111122 
DISL,ioos:station:DISL:MBLA:1,2016-06-04T05:00:00Z,30.4367,-88.0117,27.77,1111122 
DISL,ioos:station:DISL:MBLA:1,2016-06-04T05:30:00Z,30.4367,-88.0117,27.2,1111122 
DISL,ioos:station:DISL:MBLA:1,2016-06-04T06:00:00Z,30.4367,-88.0117,27.03,1111122 
DISL,ioos:station:DISL:MBLA:1,2016-06-04T06:30:00Z,30.4367,-88.0117,27.65,1111122 
DISL,ioos:station:DISL:MBLA:1,2016-06-04T07:00:00Z,30.4367,-88.0117,27.0,1111122 
DISL,ioos:station:DISL:MBLA:1,2016-06-04T07:30:00Z,30.4367,-88.0117,25.01,1111122 
DISL,ioos:station:DISL:MBLA:1,2016-06-04T08:00:00Z,30.4367,-88.0117,25.07,1111122 
DISL,ioos:station:DISL:MBLA:1,2016-06-04T08:30:00Z,30.4367,-88.0117,25.24,1111122 
DISL,ioos:station:DISL:MBLA:1,2016-06-04T09:00:00Z,30.4367,-88.0117,25.89,1111122 
DISL,ioos:station:DISL:MBLA:1,2016-06-04T09:30:00Z,30.4367,-88.0117,25.34,1111122 
DISL,ioos:station:DISL:MBLA:1,2016-06-04T10:00:00Z,30.4367,-88.0117,24.26,1111122 
DISL,ioos:station:DISL:MBLA:1,2016-06-04T10:30:00Z,30.4367,-88.0117,24.43,1111122 
DISL,ioos:station:DISL:MBLA:1,2016-06-04T11:00:00Z,30.4367,-88.0117,24.67,1111122 
DISL,ioos:station:DISL:MBLA:1,2016-06-04T11:30:00Z,30.4367,-88.0117,25.48,1111122 
DISL,ioos:station:DISL:MBLA:1,2016-06-04T12:00:00Z,30.4367,-88.0117,25.04,1111122 
DISL,ioos:station:DISL:MBLA:1,2016-06-04T12:30:00Z,30.4367,-88.0117,25.04,1111122 
DISL,ioos:station:DISL:MBLA:1,2016-06-04T13:00:00Z,30.4367,-88.0117,25.62,1111122 
DISL,ioos:station:DISL:MBLA:1,2016-06-04T13:30:00Z,30.4367,-88.0117,25.62,1111122 
DISL,ioos:station:DISL:MBLA:1,2016-06-04T14:00:00Z,30.4367,-88.0117,25.95,1111122 
DISL,ioos:station:DISL:MBLA:1,2016-06-04T14:30:00Z,30.4367,-88.0117,25.95,1111122 
DISL,ioos:station:DISL:MBLA:1,2016-06-04T15:00:00Z,30.4367,-88.0117,26.67,1111122 
DISL,ioos:station:DISL:MBLA:1,2016-06-04T15:30:00Z,30.4367,-88.0117,26.93,1111122 
DISL,ioos:station:DISL:MBLA:1,2016-06-04T16:00:00Z,30.4367,-88.0117,27.8,1111122 
DISL,ioos:station:DISL:MBLA:1,2016-06-04T16:30:00Z,30.4367,-88.0117,28.27,1111122 
DISL,ioos:station:DISL:MBLA:1,2016-06-04T17:00:00Z,30.4367,-88.0117,27.97,1111122 
DISL,ioos:station:DISL:MBLA:1,2016-06-04T17:30:00Z,30.4367,-88.0117,28.17,1111122 
DISL,ioos:station:DISL:MBLA:1,2016-06-04T18:00:00Z,30.4367,-88.0117,28.17,1111122 
DISL,ioos:station:DISL:MBLA:1,2016-06-04T18:30:00Z,30.4367,-88.0117,28.2,1111122 
DISL,ioos:station:DISL:MBLA:1,2016-06-04T19:00:00Z,30.4367,-88.0117,28.27,1111122 
DISL,ioos:station:DISL:MBLA:1,2016-06-04T19:30:00Z,30.4367,-88.0117,27.69,1111122 
DISL,ioos:station:DISL:MBLA:1,2016-06-04T20:00:00Z,30.4367,-88.0117,27.66,1111122 
DISL,ioos:station:DISL:MBLA:1,2016-06-04T20:30:00Z,30.4367,-88.0117,27.49,1111122 
DISL,ioos:station:DISL:MBLA:1,2016-06-04T21:00:00Z,30.4367,-88.0117,27.9,1111122 
DISL,ioos:station:DISL:MBLA:1,2016-06-04T21:30:00Z,30.4367,-88.0117,27.69,1111122 
DISL,ioos:station:DISL:MBLA:1,2016-06-04T22:00:00Z,30.4367,-88.0117,27.39,1111122 
DISL,ioos:station:DISL:MBLA:1,2016-06-04T22:30:00Z,30.4367,-88.0117,27.42,1111122 
DISL,ioos:station:DISL:MBLA:1,2016-06-04T23:00:00Z,30.4367,-88.0117,27.5,1111122 
DISL,ioos:station:DISL:MBLA:1,2016-06-04T23:30:00Z,30.4367,-88.0117,27.61,1111122 
DISL,ioos:station:DISL:MBLA:1,2016-06-05T00:00:00Z,30.4367,-88.0117,27.44,1111122 
DISL,ioos:station:DISL:MBLA:1,2016-06-05T00:30:00Z,30.4367,-88.0117,27.43,1111122 
DISL,ioos:station:DISL:MBLA:1,2016-06-05T01:00:00Z,30.4367,-88.0117,27.47,1111122 
DISL,ioos:station:DISL:MBLA:1,2016-06-05T01:30:00Z,30.4367,-88.0117,27.47,1111122 
DISL,ioos:station:DISL:MBLA:1,2016-06-05T02:00:00Z,30.4367,-88.0117,25.14,1111122 
DISL,ioos:station:DISL:MBLA:1,2016-06-05T02:30:00Z,30.4367,-88.0117,25.31,1111122 
DISL,ioos:station:DISL:MBLA:1,2016-06-05T03:00:00Z,30.4367,-88.0117,26.5,1111122 
DISL,ioos:station:DISL:MBLA:1,2016-06-05T03:30:00Z,30.4367,-88.0117,25.75,1111122 
DISL,ioos:station:DISL:MBLA:1,2016-06-05T04:00:00Z,30.4367,-88.0117,25.45,1111122 
DISL,ioos:station:DISL:MBLA:1,2016-06-05T04:30:00Z,30.4367,-88.0117,25.41,1111122 
DISL,ioos:station:DISL:MBLA:1,2016-06-05T05:00:00Z,30.4367,-88.0117,25.58,1111122 
DISL,ioos:station:DISL:MBLA:1,2016-06-05T05:30:00Z,30.4367,-88.0117,25.07,1111122 
DISL,ioos:station:DISL:MBLA:1,2016-06-05T06:00:00Z,30.4367,-88.0117,26.02,1111122 
DISL,ioos:station:DISL:MBLA:1,2016-06-05T06:30:00Z,30.4367,-88.0117,24.4,1111122 
DISL,ioos:station:DISL:MBLA:1,2016-06-05T07:00:00Z,30.4367,-88.0117,23.48,1111122 
DISL,ioos:station:DISL:MBLA:1,2016-06-05T07:30:00Z,30.4367,-88.0117,23.11,1111122 
DISL,ioos:station:DISL:MBLA:1,2016-06-05T08:00:00Z,30.4367,-88.0117,23.62,1111122 
DISL,ioos:station:DISL:MBLA:1,2016-06-05T08:30:00Z,30.4367,-88.0117,24.07,1111122 
DISL,ioos:station:DISL:MBLA:1,2016-06-05T09:00:00Z,30.4367,-88.0117,23.86,1111122 
DISL,ioos:station:DISL:MBLA:1,2016-06-05T09:30:00Z,30.4367,-88.0117,24.23,1111122 
DISL,ioos:station:DISL:MBLA:1,2016-06-05T10:00:00Z,30.4367,-88.0117,24.1,1111122 
DISL,ioos:station:DISL:MBLA:1,2016-06-05T10:30:00Z,30.4367,-88.0117,24.27,1111122 
DISL,ioos:station:DISL:MBLA:1,2016-06-05T11:00:00Z,30.4367,-88.0117,23.97,1111122 
DISL,ioos:station:DISL:MBLA:1,2016-06-05T11:30:00Z,30.4367,-88.0117,24.27,1111122 
DISL,ioos:station:DISL:MBLA:1,2016-06-05T12:00:00Z,30.4367,-88.0117,24.5,1111122 
DISL,ioos:station:DISL:MBLA:1,2016-06-05T12:30:00Z,30.4367,-88.0117,24.43,1111122 
DISL,ioos:station:DISL:MBLA:1,2016-06-05T13:00:00Z,30.4367,-88.0117,24.36,1111122 
DISL,ioos:station:DISL:MBLA:1,2016-06-05T13:30:00Z,30.4367,-88.0117,24.53,1111122 
DISL,ioos:station:DISL:MBLA:1,2016-06-05T14:00:00Z,30.4367,-88.0117,24.6,1111122 
DISL,ioos:station:DISL:MBLA:1,2016-06-05T14:30:00Z,30.4367,-88.0117,24.73,1111122 
DISL,ioos:station:DISL:MBLA:1,2016-06-05T15:00:00Z,30.4367,-88.0117,25.11,1111122 
DISL,ioos:station:DISL:MBLA:1,2016-06-05T15:30:00Z,30.4367,-88.0117,24.97,1111122 
DISL,ioos:station:DISL:MBLA:1,2016-06-05T16:00:00Z,30.4367,-88.0117,25.41,1111122 
DISL,ioos:station:DISL:MBLA:1,2016-06-05T16:30:00Z,30.4367,-88.0117,25.99,1111122 
DISL,ioos:station:DISL:MBLA:1,2016-06-05T17:00:00Z,30.4367,-88.0117,27.44,1111122 
DISL,ioos:station:DISL:MBLA:1,2016-06-05T17:30:00Z,30.4367,-88.0117,28.31,1111122 
DISL,ioos:station:DISL:MBLA:1,2016-06-05T18:00:00Z,30.4367,-88.0117,28.0,1111122 
DISL,ioos:station:DISL:MBLA:1,2016-06-05T18:30:00Z,30.4367,-88.0117,28.24,1111122 
DISL,ioos:station:DISL:MBLA:1,2016-06-05T19:00:00Z,30.4367,-88.0117,28.13,1111122 
DISL,ioos:station:DISL:MBLA:1,2016-06-05T19:30:00Z,30.4367,-88.0117,28.51,1111122 
DISL,ioos:station:DISL:MBLA:1,2016-06-05T20:00:00Z,30.4367,-88.0117,28.88,1111122 
DISL,ioos:station:DISL:MBLA:1,2016-06-05T20:30:00Z,30.4367,-88.0117,28.98,1111122 
DISL,ioos:station:DISL:MBLA:1,2016-06-05T21:00:00Z,30.4367,-88.0117,28.57,1111122 
DISL,ioos:station:DISL:MBLA:1,2016-06-05T21:30:00Z,30.4367,-88.0117,27.59,1111122 
DISL,ioos:station:DISL:MBLA:1,2016-06-05T22:00:00Z,30.4367,-88.0117,28.0,1111122 
DISL,ioos:station:DISL:MBLA:1,2016-06-05T22:30:00Z,30.4367,-88.0117,29.29,1111122 
DISL,ioos:station:DISL:MBLA:1,2016-06-05T23:00:00Z,30.4367,-88.0117,27.97,1111122 
DISL,ioos:station:DISL:MBLA:1,2016-06-05T23:30:00Z,30.4367,-88.0117,27.97,1111122 
DISL,ioos:station:DISL:MBLA:1,2016-06-06T00:00:00Z,30.4367,-88.0117,27.69,1111122 
DISL,ioos:station:DISL:MBLA:1,2016-06-06T00:30:00Z,30.4367,-88.0117,27.66,1111122 
DISL,ioos:station:DISL:MBLA:1,2016-06-06T01:00:00Z,30.4367,-88.0117,27.63,1111122 
DISL,ioos:station:DISL:MBLA:1,2016-06-06T01:30:00Z,30.4367,-88.0117,27.39,1111122 
DISL,ioos:station:DISL:MBLA:1,2016-06-06T02:00:00Z,30.4367,-88.0117,27.4,1111122 
DISL,ioos:station:DISL:MBLA:1,2016-06-06T02:30:00Z,30.4367,-88.0117,27.29,1111122 
DISL,ioos:station:DISL:MBLA:1,2016-06-06T03:00:00Z,30.4367,-88.0117,27.23,1111122 
DISL,ioos:station:DISL:MBLA:1,2016-06-06T03:30:00Z,30.4367,-88.0117,27.06,1111122 
DISL,ioos:station:DISL:MBLA:1,2016-06-06T04:00:00Z,30.4367,-88.0117,26.96,1111122 
DISL,ioos:station:DISL:MBLA:1,2016-06-06T04:30:00Z,30.4367,-88.0117,26.83,1111122 
DISL,ioos:station:DISL:MBLA:1,2016-06-06T05:00:00Z,30.4367,-88.0117,26.76,1111122 
DISL,ioos:station:DISL:MBLA:1,2016-06-06T05:30:00Z,30.4367,-88.0117,26.63,1111122 
DISL,ioos:station:DISL:MBLA:1,2016-06-06T06:00:00Z,30.4367,-88.0117,26.94,1111122 
DISL,ioos:station:DISL:MBLA:1,2016-06-06T06:30:00Z,30.4367,-88.0117,26.73,1111122 
DISL,ioos:station:DISL:MBLA:1,2016-06-06T07:00:00Z,30.4367,-88.0117,26.5,1111122 
DISL,ioos:station:DISL:MBLA:1,2016-06-06T07:30:00Z,30.4367,-88.0117,26.26,1111122 
DISL,ioos:station:DISL:MBLA:1,2016-06-06T08:00:00Z,30.4367,-88.0117,26.26,1111122 
DISL,ioos:station:DISL:MBLA:1,2016-06-06T08:30:00Z,30.4367,-88.0117,26.26,1111122 
DISL,ioos:station:DISL:MBLA:1,2016-06-06T09:00:00Z,30.4367,-88.0117,26.5,1111122 
DISL,ioos:station:DISL:MBLA:1,2016-06-06T09:30:00Z,30.4367,-88.0117,26.12,1111122 
DISL,ioos:station:DISL:MBLA:1,2016-06-06T10:00:00Z,30.4367,-88.0117,25.92,1111122 
DISL,ioos:station:DISL:MBLA:1,2016-06-06T10:30:00Z,30.4367,-88.0117,25.92,1111122 
DISL,ioos:station:DISL:MBLA:1,2016-06-06T11:00:00Z,30.4367,-88.0117,25.65,1111122 
DISL,ioos:station:DISL:MBLA:1,2016-06-06T11:30:00Z,30.4367,-88.0117,25.58,1111122 
DISL,ioos:station:DISL:MBLA:1,2016-06-06T12:00:00Z,30.4367,-88.0117,25.38,1111122 
DISL,ioos:station:DISL:MBLA:1,2016-06-06T12:30:00Z,30.4367,-88.0117,25.24,1111122 
DISL,ioos:station:DISL:MBLA:1,2016-06-06T13:00:00Z,30.4367,-88.0117,25.07,1111122 
DISL,ioos:station:DISL:MBLA:1,2016-06-06T13:30:00Z,30.4367,-88.0117,25.14,1111122 
DISL,ioos:station:DISL:MBLA:1,2016-06-06T14:00:00Z,30.4367,-88.0117,25.07,1111122 
DISL,ioos:station:DISL:MBLA:1,2016-06-06T14:30:00Z,30.4367,-88.0117,25.38,1111122 
DISL,ioos:station:DISL:MBLA:1,2016-06-06T15:00:00Z,30.4367,-88.0117,25.65,1111122 
DISL,ioos:station:DISL:MBLA:1,2016-06-06T15:30:00Z,30.4367,-88.0117,26.09,1111122 
DISL,ioos:station:DISL:MBLA:1,2016-06-06T16:00:00Z,30.4367,-88.0117,26.39,1111122 
DISL,ioos:station:DISL:MBLA:1,2016-06-06T16:30:00Z,30.4367,-88.0117,26.73,1111122 
DISL,ioos:station:DISL:MBLA:1,2016-06-06T17:00:00Z,30.4367,-88.0117,27.23,1111122 
DISL,ioos:station:DISL:MBLA:1,2016-06-06T17:30:00Z,30.4367,-88.0117,27.39,1111122 
DISL,ioos:station:DISL:MBLA:1,2016-06-06T18:00:00Z,30.4367,-88.0117,27.42,1111122 
DISL,ioos:station:DISL:MBLA:1,2016-06-06T18:30:00Z,30.4367,-88.0117,27.86,1111122 
DISL,ioos:station:DISL:MBLA:1,2016-06-06T19:00:00Z,30.4367,-88.0117,28.44,1111122 
DISL,ioos:station:DISL:MBLA:1,2016-06-06T19:30:00Z,30.4367,-88.0117,28.37,1111122 
DISL,ioos:station:DISL:MBLA:1,2016-06-06T20:00:00Z,30.4367,-88.0117,28.68,1111122 
DISL,ioos:station:DISL:MBLA:1,2016-06-06T20:30:00Z,30.4367,-88.0117,28.74,1111122 
DISL,ioos:station:DISL:MBLA:1,2016-06-06T21:00:00Z,30.4367,-88.0117,29.15,1111122 
DISL,ioos:station:DISL:MBLA:1,2016-06-06T21:30:00Z,30.4367,-88.0117,28.85,1111122 
DISL,ioos:station:DISL:MBLA:1,2016-06-06T22:00:00Z,30.4367,-88.0117,29.28,1111122 
DISL,ioos:station:DISL:MBLA:1,2016-06-06T22:30:00Z,30.4367,-88.0117,29.86,1111122 
DISL,ioos:station:DISL:MBLA:1,2016-06-06T23:00:00Z,30.4367,-88.0117,30.16,1111122 
DISL,ioos:station:DISL:MBLA:1,2016-06-06T23:30:00Z,30.4367,-88.0117,29.75,1111122 